Location: Peterborough
(44.3091°N, 78.3197°W)
Time: 01:58:49
(UTC-04:00)

SR - Pass Details

Date: 29 March 2023
Orbit: 581 x 867 km, 66.7° (Epoch: 02 June)

Event Time Altitude Azimuth Distance (km) Brightness Sun altitude
Rises 02:19:23 0° 204° (SSW) 3,008 - -40.5°
Reaches altitude 10° 02:21:46 10° 201° (SSW) 2,055 - -40.3°
Maximum altitude 02:26:21 69° 119° (ESE) 667 - -40.0°
Drops below altitude 10° 02:30:40 10° 37° (NE) 1,942 - -39.7°
Exits shadow 02:30:48 - 36° (NE) 1,996 ? -39.7°
Sets 02:32:52 0° 35° (NE) 2,828 ? -39.5°
